Location: *
(32.8667°N, 13.1833°E)
Time: 07:52:38
(UTC+00:00)

Tiangong 2 - Pass Details

Date: 18 July 2019
Orbit: 185 x 376 km, 42.8° (Epoch: 19 July)

Event Time Altitude Azimuth Distance (km) Brightness Sun altitude
Rises 18:30:40 0° 300° (WNW) 2,221 8.3 -3.7°
Reaches altitude 10° 18:33:33 10° 329° (NNW) 1,381 5.0 -4.2°
Maximum altitude 18:35:09 13° 0° (N) 1,211 4.0 -4.5°
Drops below altitude 10° 18:36:44 10° 31° (NNE) 1,380 3.9 -4.8°
Enters shadow 18:40:48 -4° 66° (ENE) 2,635 4.9 -5.6°
